sat.trackr.live / text

‹ back to catalog

STARLINK-3757

NORAD 52539 · 2022-051G

PAYLOAD ACTIVE UNKNOWN

§ Identity

Operator
Country
US
Launch date
2022-05-13
Launch site
AFWTR
Launch vehicle
Mass (kg)
RCS (m²)

Purposes: comms

External: N2YO · Heavens-Above · Gunter

§ Orbital elements

Epoch: 2026-05-25T04:57:13.793760Z

Period
95.44 min
Inclination
53.2142°
Eccentricity
0.0002864
Mean motion
15.08747540 rev/d
Perigee alt
538.0 km
Apogee alt
542.0 km
Semi-major
6,918.2 km
B*
-7.7260e-4
RAAN
145.6235°
Arg perigee
34.1312°
Mean anomaly
325.9864°
Rev number
22,299

§ Raw data

STARLINK-37571 52539U 22051G   26145.20640965 -.00012533  00000+0 -77260-3 0  99942 52539  53.2142 145.6235 0002864  34.1312 325.9864 15.08747540222995

JSON: /api/v1/satellites/52539 · /tle

For live sub-satellite position, see the globe view (requires WebGL).

§ Visibility from observer

Set your observer location to see the next 7 days of passes ≥ 10°. The values pass through the URL so the page stays shareable.

No JS? Fill the form by hand. The geolocation button needs JavaScript.